Location: Nitra
(0.0000°N, 18.0833°E)
Time: 09:54:45
(UTC+02:00)

A-11 Canister half - Pass Details

Date: 02 April 2023
Orbit: 1513 x 1686 km, 47.2° (Epoch: 02 June)

Event Time Altitude Azimuth Distance (km) Brightness Sun altitude
Exits shadow 03:03:00 18° 39° (NE) 3,319 10.9 -56.8°
Maximum altitude 03:03:55 18° 46° (NE) 3,302 10.9 -56.6°
Drops below altitude 10° 03:10:13 10° 86° (E) 3,905 11.5 -55.0°
Sets 03:14:44 0° 103° (ESE) 4,868 12.1 -53.9°
